EDT,Max TemperatureF,Mean TemperatureF,Min TemperatureF,Max Dew PointF,MeanDew PointF,Min DewpointF,Max Humidity, Mean Humidity, Min Humidity, Max Sea Level PressureIn, Mean Sea Level PressureIn, Min Sea Level PressureIn, Max VisibilityMiles, Mean VisibilityMiles, Min VisibilityMiles, Max Wind SpeedMPH, Mean Wind SpeedMPH, Max Gust SpeedMPH,PrecipitationIn, CloudCover, Events, WindDirDegrees
2012-9-1,82,76,69,70,68,66,97,80,62,30.23,30.17,30.11,10,10,6,9,2,14,0.01,5,Rain,228
2012-9-2,86,77,67,71,67,65,97,78,59,30.15,30.09,29.96,10,6,0,13,2,20,1.34,6,Fog-Rain,243
2012-9-3,85,75,64,68,65,63,100,78,55,30.07,30.02,29.96,10,6,0,12,3,16,0.02,2,Fog-Rain,165
2012-9-4,82,75,67,70,67,64,100,84,67,30.04,29.97,29.89,10,6,1,18,2,22,0.51,6,Rain,191
2012-9-5,84,76,67,70,68,65,97,76,55,29.97,29.92,29.86,10,8,2,10,2,14,0.44,6,Rain,299
2012-9-6,85,75,64,67,66,62,100,76,51,30.02,29.96,29.91,10,7,3,9,1,13,0.00,5,Rain,313
2012-9-7,87,75,62,65,62,59,100,70,40,30.05,29.98,29.86,10,7,2,9,2,13,0.00,3,,275
2012-9-8,72,62,51,64,59,50,96,85,73,29.96,29.82,29.72,10,8,1,31,4,44,0.48,6,Rain,243
2012-9-9,69,59,49,54,50,45,100,73,45,30.09,29.99,29.94,10,9,6,13,2,18,T,6,Rain,302
2012-9-10,68,56,44,52,47,40,100,69,37,30.29,30.17,30.09,10,6,0,13,3,20,0.00,5,Fog,346
2012-9-11,76,59,41,53,44,39,100,68,35,30.40,30.33,30.27,10,6,0,9,1,12,0.00,2,Fog,282
2012-9-12,80,63,45,59,49,44,100,70,40,30.42,30.36,30.30,10,5,0,8,1,10,0.00,2,Fog,327
2012-9-13,81,65,49,62,52,48,100,73,45,30.43,30.36,30.28,10,4,0,9,1,14,0.00,2,Fog,11
2012-9-14,79,65,50,61,53,48,96,68,39,30.32,30.27,30.20,10,8,2,14,2,18,T,2,Rain,294
2012-9-15,70,58,46,61,50,41,93,67,40,30.33,30.27,30.22,10,9,5,12,3,18,0.00,4,Rain,340
2012-9-16,73,58,43,51,46,43,100,71,41,30.25,30.21,30.11,10,5,0,7,1,10,0.00,3,Fog,348
2012-9-17,77,60,43,61,48,42,100,77,53,30.17,30.11,29.93,10,4,0,10,2,16,0.20,5,Fog-Rain,200
2012-9-18,67,58,49,63,59,49,100,90,80,29.96,29.78,29.64,10,7,2,20,4,26,1.16,8,Rain,269
2012-9-19,62,51,40,50,43,34,96,66,36,30.22,30.12,29.97,10,9,5,10,3,16,T,3,Rain,325
2012-9-20,75,57,39,54,44,37,100,68,35,30.21,30.15,30.06,10,4,0,10,1,15,0.00,2,Fog,261
2012-9-21,76,61,46,56,48,45,100,71,41,30.12,30.07,29.93,10,6,1,13,2,18,0.00,3,,265
2012-9-22,74,59,44,55,50,35,84,63,42,30.12,29.93,29.87,10,10,10,21,8,30,0.00,5,,231
2012-9-23,59,48,37,41,37,33,92,66,40,30.26,30.20,30.13,10,10,10,13,2,17,0.00,4,,315
2012-9-24,63,49,35,41,36,33,92,64,36,30.32,30.25,30.18,10,10,2,12,2,16,0.00,1,,281
2012-9-25,68,50,31,53,40,30,100,73,45,30.25,30.19,30.11,10,8,1,16,3,24,0.05,3,Rain,233
2012-9-26,76,67,57,61,57,54,93,70,46,30.23,30.16,30.10,10,8,0,21,6,28,1.25,5,Fog-Rain,233
2012-9-27,74,66,58,62,59,57,97,79,61,30.24,30.19,30.12,10,6,2,17,1,22,0.26,6,Rain,248
2012-9-28,66,58,50,61,57,48,96,85,73,30.15,30.12,30.07,10,6,2,8,2,10,0.02,6,Rain,337
2012-9-29,63,53,42,52,48,41,100,74,48,30.10,30.06,29.99,10,5,0,10,2,17,0.00,6,Fog,330
2012-9-30,66,53,39,47,43,38,96,70,43,30.01,29.95,29.87,10,8,3,14,3,22,0.00,4,,279